Terug naar catalogus

DELTA 1 DEB

ActiefLEO
NORAD 7061·DEBRIS·🇺🇸 United States

Gelanceerd Nov 6, 1973 vanaf Vandenberg Space Force Base

Loading…

Volgende Passages (komende 24 uur)

TLE

VersSource: Space-Track

Epoch: Sep 14, 2026, 04:17 UTC

1 07061U 73086BD  26257.17874426  .00000026  00000-0  43875-3 0  9997
2 07061 102.4530 153.8491 0138155 178.2039 338.3704 12.56191745418928

Volg DELTA 1 DEB in realtime met AllMySat

Download on the App Store